Regional Weather Roundup
Issued by NWS

Home | Current Version | Previous Version | Text Only | Print | Product List | Glossary On
Versions: 1 2 3 4 5 6 7 8 9 10 11 12 13 14 15 16 17 18 19 20 21 22 23 24 25 26 27 28 29 30 31 32 33 34 35 36 37 38 39 40 41 42 43 44 45 46 47 48 49 50
000
ASUS44 KEWX 020803
RWRTX
SOUTH TEXAS REGIONAL WEATHER ROUNDUP
NATIONAL WEATHER SERVICE AUSTIN/SAN ANTONIO TX
300 AM CDT THU JUL 02 2015

NOTE: "FAIR" INDICATED FEW OR NO CLOUDS BELOW 12,000 FEET WITH NO
SIGNIFICANT WEATHER AND/OR OBSTRUCTIONS TO VISIBILITY.

* - THESE STATIONS ARE NOT NWS OR FAA STATIONS...AND ARE NOT SUBJECT
    TO NWS AND FAA QUALITY CONTROL.

TXZ171-172-183>190-020900-
TEXAS HILL COUNTRY AND EDWARDS PLATEAU

CITY           SKY/WX    TMP DP  RH WIND       PRES   REMARKS
JUNCTION       CLEAR     71  67  87 S3        30.01F
*LLANO         CLEAR     72  70  94 CALM      30.04S
BURNET         CLEAR     70  67  90 S8        30.03F
*HORSESHOE BAY NOT AVBL
*KERRVILLE     NOT AVBL
*FREDERICKSBRG CLEAR     68  64  88 S5        30.02F
*ROCKSPRINGS   CLEAR     68  64  88 S12       30.05F
*CASTROVILLE   CLEAR     70  70  98 SE3       30.02F
HONDO          PTCLDY    69  66  90 S7        30.02F
*UVALDE        NOT AVBL
DEL RIO        CLEAR     74  65  73 E7        29.97S
LAUGHLIN AFB   CLEAR     72  68  87 SE8       29.98S
CARRIZO SPRGS  NOT AVBL
$$

TXZ173-191>194-202-209-217>225-228-020900-
CENTRAL AND SOUTH CENTRAL TEXAS

CITY           SKY/WX    TMP DP  RH WIND       PRES   REMARKS
GEORGETOWN     CLEAR     72  14  11 S7        29.99R
AUSTIN/BERGSTM MOCLDY    70  70 100 S7        29.99F
AUSTIN/MABRY   PTCLDY    71  70  96 S3        30.01F
*AUSTIN/EXEC   CLOUDY    72  72 100 S8        30.01F
*LAGO VISTA    NOT AVBL
SAN MARCOS     CLOUDY    72  70  94 S8        30.01S
NEW BRAUNFELS  CLOUDY    72  71  97 S7        29.99F
RANDOLPH AFB   CLOUDY    71  71 100 S7        30.00F
PT SAN ANTONIO CLEAR     71  70  96 SE8       29.99F
SAN ANTONIO    PTCLDY    73  69  87 S8        30.00F
STINSON FIELD  CLEAR     71  70  96 SE6       29.98F
*PLEASANTON    NOT AVBL
*LA GRANGE     PTCLDY    73  72  97 S5        29.99F
*GIDDINGS      NOT AVBL
*GONZALES      NOT AVBL
$$

TXZ163>164-176>182-195>201-210>213-226-227-235-020900-
SOUTHEAST TEXAS

CITY           SKY/WX    TMP DP  RH WIND       PRES   REMARKS
COLLEGE STN    CLEAR     71  69  93 S5        30.00F
*BRYAN         NOT AVBL
*CALDWELL      CLEAR     70  70 100 CALM      30.03F
*CROCKETT      NOT AVBL
*BRENHAM       NOT AVBL
HUNTSVILLE     CLEAR     73  70  90 S5        30.02R
CONROE         PTCLDY    72  70  93 S3        30.02F
HOUSTON BUSH   PTCLDY    73  71  93 CALM      30.01F
HOUSTON HOBBY  MOCLDY    72  71  97 CALM      30.00F
*HOUSTON SW AP NOT AVBL
PEARLAND       CLEAR     73  71  93 CALM      30.02F
HOUSTON HOOKS  CLEAR     73  71  93 S3        30.01F
ELLINGTON FLD  PTCLDY    72  70  94 CALM      30.02F
SUGAR LAND     CLEAR     71  70  96 CALM      30.01F
*HOUSTON EXEC  MOCLDY    72  72 100 S6        30.02F
*CLEVELAND MUN NOT AVBL
*WHARTON       NOT AVBL
*COLUMBUS      NOT AVBL
$$

TXZ214>216-236>238-020900-
THE UPPER TEXAS COAST

CITY           SKY/WX    TMP DP  RH WIND       PRES   REMARKS
*ORANGE        NOT AVBL
PORT ARTHUR    PTCLDY    74  73  97 CALM      30.02S
GALVESTON      CLEAR     77  73  87 SE5       30.02F
ANGLETON       PTCLDY    72  70  93 CALM      30.01F
*BAY CITY      NOT AVBL
PALACIOS       CLEAR     76  73  91 SE5       30.00F
$$

TXZ229>234-239>247-020900-
TEXAS COASTAL BEND AND RIO GRANDE PLAINS

CITY           SKY/WX    TMP DP  RH WIND       PRES   REMARKS
VICTORIA       CLEAR     72  72 100 E3        30.00F
*BEEVILLE      NOT AVBL
ROCKPORT       PTCLDY    79  70  74 SE9       29.98F
*PORT ARANSAS  NOT AVBL
*PORT LAVACA   CLEAR     73  72  94 SE6       30.00F
*INGLESIDE     PTCLDY    76  72  85 SE5       29.99F
CORPUS CHRISTI CLOUDY    73  70  90 SE7       29.99F
CORPUS NAS     PTCLDY    77  73  87 SE7       29.98F
*ROBSTOWN      NOT AVBL
ALICE          PTCLDY    71  68  90 S3        29.99F
KINGSVILLE NAS PTCLDY    73  72  96 S5        29.99F
COTULLA        CLEAR     70  66  87 SE7       29.99F
*FAITH RANCH     N/A     73  64  73 SE8       29.98F
LAREDO         CLEAR     72  64  75 SE3       30.00F
$$

TXZ248>255-020900-
DEEP SOUTH TEXAS

CITY           SKY/WX    TMP DP  RH WIND       PRES   REMARKS
BROWNSVILLE    CLEAR     72  69  90 E5        29.98F
PORT ISABEL    CLEAR     75  71  87 E7        29.97F
*SOUTH PADRE   CLEAR     75  73  94 CALM      29.98F
HARLINGEN      CLEAR     72  70  93 CALM      29.97F
*HEBBRONVILLE    N/A     69  66  90 SE7       30.01F
MCALLEN        MOCLDY    75  69  81 SE7       29.98F
*WESLACO       NOT AVBL
FALFURRIAS     NOT AVBL
EDINBURG       NOT AVBL
*ZAPATA        NOT AVBL
$$

TXZ213>215-236>238-242>244-246-247-251-254-255-020900-
CMAN STATIONS

STATION/POSITION TIME  TEMP    WIND        PRES    WAVE
                       AIR SEA DIR/SP/G            HT/PER
                 (UTC) (F)     (DEG/KT/KT) (MB)    (FT/S)
$$

GMZ080-GMZ150>470-020900-
OFFSHORE BUOY REPORTS

STATION/POSITION TIME  TEMP    WIND        PRES    WAVE
                       AIR SEA DIR/SP/G            HT/PER
                 (UTC) (F)     (DEG/KT/KT) (MB)    (FT/S)
$$


USA.gov is the U.S. government's official web portal to all federal, state and local government web resources and services.